Location: Hohe Wand Wildgehege
(47.8330°N, 16.0440°E)
Time: 19:41:26
(UTC+02:00)

ISS - Visible Passes

Search period start: 23 June 2021 00:00
Search period end: 03 July 2021 00:00
Orbit: 417 x 422 km, 51.6° (Epoch: 22 June)

Date Brightness Start Highest point End Pass type
(mag) Time Alt. Az. Time Alt. Az. Time Alt. Az.
27 Jun -1.3 04:15:11 10° S 04:17:07 14° SE 04:19:02 10° E visible
29 Jun -2.6 04:15:38 10° SSW 04:18:42 33° SE 04:21:46 10° ENE visible
30 Jun -2.1 03:29:33 15° S 03:31:24 22° SE 03:34:05 10° E visible
01 Jul -1.6 02:43:47 14° SE 02:44:08 15° SE 02:46:05 10° E visible
01 Jul -3.7 04:17:07 10° WSW 04:20:29 74° SSE 04:23:51 10° ENE visible
02 Jul -3.4 03:30:56 19° SW 03:33:05 50° SSE 03:36:22 10° ENE visible
